GFSSGP_850_spd_120.txt.gz
Wind_Speed
15 14 16 7 4 5 2 2 1 2 3 4 5 6 10 8 3 3 7 3 0 2 3 4 6 6 4 4 4 3 3 3 3 3 2 2 1 3 3 3 4 3 3 3 4 3 1 2 1
16 16 10 3 5 3 3 3 3 1 9 12 11 7 7 3 6 7 3 3 1 3 1 3 4 4 5 5 5 4 4 4 4 4 4 4 4 4 4 4 5 5 5 5 6 6 5 2 2
17 14 3 4 4 5 4 3 4 3 9 2 6 9 4 4 6 4 6 6 4 1 4 3 4 1 4 4 5 5 5 5 6 6 6 5 6 6 6 6 7 7 7 8 10 7 7 6 7
10 5 5 4 4 1 4 4 1 4 7 5 12 7 6 4 4 6 6 7 7 3 1 2 5 4 4 5 5 6 7 8 8 8 8 7 7 8 7 8 8 7 8 9 7 10 10 8 8
13 4 4 4 2 1 0 0 1 3 4 5 2 4 5 9 9 6 5 5 6 5 2 1 4 5 6 6 7 8 9 9 10 11 11 10 10 10 10 9 9 8 9 9 9 9 11 10 8
4 3 4 5 3 1 1 2 3 4 4 5 8 6 4 8 6 4 5 6 7 6 4 3 4 6 7 8 8 8 9 11 12 13 13 13 13 13 13 12 11 11 11 11 11 12 14 14 12
5 4 4 6 6 3 2 3 4 5 4 5 7 4 7 7 5 2 3 6 9 9 8 7 7 8 9 12 11 12 12 12 12 12 13 15 15 15 15 14 14 14 13 13 13 14 15 16 16
4 4 4 1 6 5 1 3 6 5 3 7 4 5 5 8 4 1 4 6 9 12 12 9 9 11 10 13 13 14 14 14 14 14 15 15 17 18 18 18 18 17 17 16 15 16 16 17 17
4 4 3 7 7 5 5 4 2 5 7 5 4 6 10 8 2 3 4 7 9 11 11 11 10 9 11 12 13 15 17 17 16 17 16 16 18 19 19 20 20 20 20 19 19 19 19 19 19
4 4 7 2 4 5 6 4 5 4 6 6 11 10 8 3 2 4 6 9 10 10 11 12 13 13 12 12 14 15 16 17 19 20 21 20 20 20 21 22 21 22 22 23 23 23 23 23 22
3 3 5 2 5 10 6 4 4 9 1 4 8 7 4 2 2 4 7 8 9 11 12 14 14 15 15 14 14 14 16 18 19 20 22 24 24 24 23 22 21 22 22 24 25 26 26 25 25
7 5 3 6 5 6 4 6 4 3 3 9 8 5 4 2 3 4 5 7 8 11 13 14 15 16 15 15 15 16 16 16 18 20 22 24 26 26 26 26 25 24 24 25 25 25 26 26 25
5 3 7 9 9 9 7 4 1 3 9 8 5 5 3 2 2 3 6 9 11 11 14 16 18 17 16 16 16 16 17 17 18 19 19 22 25 27 28 29 29 29 27 28 27 24 25 26 28
6 11 7 7 7 6 3 1 3 0 10 11 8 5 3 3 2 3 5 8 11 14 18 19 19 19 19 18 18 19 19 19 19 19 20 21 23 25 28 29 30 32 30 31 30 30 28 27 27
8 6 5 9 5 3 3 2 4 5 9 12 8 6 6 6 4 3 6 9 13 16 17 19 20 19 19 19 19 19 19 19 19 20 20 20 21 23 25 29 30 28 29 31 31 32 29 28 30
5 5 4 4 5 3 2 5 1 9 11 9 7 9 10 8 6 5 7 11 14 16 19 21 21 20 18 18 18 18 18 18 19 20 20 19 19 21 22 24 26 29 30 31 30 29 29 29 28
7 4 3 1 3 3 2 3 2 7 10 11 7 12 13 12 10 8 8 12 14 18 23 23 20 16 15 15 14 12 13 15 15 15 15 15 17 16 18 21 24 24 25 29 28 28 28 27 27
5 6 3 3 2 3 3 7 6 7 10 17 16 8 16 16 13 10 10 12 14 19 22 19 15 12 13 12 12 12 11 9 10 11 10 12 14 15 16 18 21 20 21 21 23 27 28 28 29
7 6 5 0 1 1 5 7 11 19 14 22 25 21 19 20 15 12 10 11 13 18 16 15 12 11 11 10 11 13 15 14 11 11 12 12 13 15 17 17 16 12 14 13 17 19 23 16 23
6 6 3 2 1 1 5 12 12 8 10 19 24 25 23 21 17 13 9 10 12 13 13 13 10 8 9 12 14 13 13 15 14 11 14 15 12 13 14 14 14 13 9 10 12 9 8 9 11
5 5 3 3 3 2 7 8 4 3 4 7 12 16 22 23 18 13 9 9 10 10 12 9 6 6 8 9 11 10 9 8 8 10 10 10 11 10 12 13 12 13 16 14 11 12 13 12 14
3 2 3 4 4 2 4 4 6 3 6 3 6 11 17 19 16 13 10 9 7 7 9 7 5 5 6 6 8 11 12 11 13 13 13 10 11 12 12 15 13 11 10 11 11 11 11 11 12
3 3 4 3 4 3 1 3 7 3 6 7 12 15 18 17 15 12 10 8 8 6 5 3 3 5 7 7 7 7 8 10 10 10 10 10 11 12 12 13 13 12 13 15 11 10 10 11 10
4 5 6 4 3 2 1 3 6 4 5 1 5 19 19 18 15 13 11 9 6 4 2 1 3 5 7 8 8 8 8 8 7 7 8 9 11 12 13 13 12 11 9 8 11 13 13 14 13
6 5 3 4 3 5 2 1 10 6 5 3 4 11 19 18 16 14 12 8 8 5 3 2 2 2 4 4 6 6 6 7 7 8 8 8 9 10 12 13 13 13 12 10 9 10 12 14 14
3 4 4 5 2 4 2 6 6 3 0 4 6 6 12 17 16 15 11 10 11 9 7 3 1 1 2 3 4 4 6 6 6 6 7 10 11 12 13 14 15 15 15 14 13 12 13 13 14
2 0 3 5 2 2 3 7 9 4 6 6 8 9 13 15 14 13 11 12 13 12 10 5 4 4 3 2 3 4 4 5 7 8 9 10 11 12 14 16 17 17 17 17 16 15 14 13 13
2 5 3 2 1 4 5 6 5 3 3 6 9 18 15 13 13 12 13 14 16 16 13 9 7 7 6 5 5 6 6 7 8 9 9 10 11 12 13 15 16 16 16 16 16 15 15 15 15
2 1 3 3 3 3 3 6 6 5 4 6 8 9 10 11 10 11 12 16 18 18 17 13 10 8 8 8 8 8 8 8 9 10 11 12 13 15 17 17 17 16 16 16 16 17 17 17 16
4 5 5 3 3 1 2 7 2 5 5 6 8 7 7 9 10 12 13 17 20 21 19 15 13 11 12 12 11 11 10 10 11 12 13 14 15 16 17 17 16 15 16 16 17 17 17 17 17

GFSSGP_850_spd_123.txt.gz
Wind_Speed
15 16 17 9 3 3 2 3 1 3 1 1 5 3 9 7 2 5 7 3 2 3 1 5 3 3 4 3 3 2 2 2 3 4 2 2 2 3 3 3 3 3 2 1 3 2 1 1 1
17 18 12 4 3 2 2 1 5 2 10 16 12 7 6 4 6 8 4 3 2 3 2 3 2 0 3 2 3 4 3 3 4 4 4 4 4 4 5 5 4 4 5 4 5 5 6 3 3
18 16 5 4 3 4 4 3 5 4 13 3 5 9 4 4 7 5 7 6 4 1 3 2 2 2 1 3 2 3 4 5 5 5 5 5 6 6 6 6 6 6 6 7 7 8 7 6 7
11 5 6 3 3 1 2 6 6 8 5 3 12 8 7 5 5 7 7 7 6 3 1 3 4 2 3 4 5 5 6 6 7 7 7 7 8 8 8 7 7 7 7 7 8 8 9 9 8
13 4 4 3 2 1 1 2 5 3 4 5 4 5 5 10 11 8 6 5 3 2 2 3 3 4 6 6 7 8 8 9 9 9 9 9 10 10 10 9 9 9 8 8 8 9 9 11 10
5 3 3 4 3 1 0 2 5 5 5 6 8 7 5 10 9 7 5 2 3 3 2 3 5 5 7 8 9 9 9 10 11 12 12 12 12 13 12 12 11 11 10 10 10 10 12 13 14
5 3 4 5 7 3 3 4 7 6 6 4 9 4 8 10 8 5 1 1 3 5 6 6 7 8 10 10 11 12 12 12 12 12 12 14 14 15 14 13 13 13 13 13 13 13 13 14 15
5 4 4 2 7 5 5 4 6 4 4 8 6 5 6 13 9 4 1 3 6 8 9 8 8 9 10 11 13 15 13 14 14 14 14 15 16 16 17 17 17 17 16 16 16 16 16 16 17
5 4 3 7 7 5 9 4 3 6 9 5 5 8 12 13 8 4 2 4 7 9 10 10 9 9 10 11 13 15 15 16 17 17 17 17 17 17 17 19 19 19 19 19 20 19 19 19 20
4 3 7 3 4 5 9 5 9 5 8 6 12 14 13 9 5 4 3 5 7 9 10 12 12 11 11 11 12 14 16 17 18 19 20 20 21 21 21 20 20 21 22 22 22 22 23 22 24
3 2 4 2 3 13 10 6 4 13 1 7 13 14 10 6 4 3 3 4 6 9 11 12 13 14 13 12 12 12 13 15 17 19 21 21 23 24 24 24 24 23 22 22 23 24 24 25 25
6 6 3 4 5 5 5 9 5 4 3 10 13 10 8 5 3 1 1 4 6 7 11 13 14 15 14 14 14 14 13 13 14 15 18 21 22 23 25 25 26 27 27 25 25 24 25 26 25
5 4 8 9 11 10 7 5 3 5 10 11 11 9 7 5 3 1 2 5 7 10 13 15 15 15 15 15 15 15 15 15 15 15 16 18 20 21 23 25 27 27 28 29 29 29 28 28 27
7 14 8 9 9 8 4 1 1 5 13 11 9 7 7 6 5 1 2 5 8 12 13 14 16 17 17 16 16 16 16 16 15 15 15 15 18 20 21 22 23 26 29 30 32 32 31 31 29
10 6 4 10 5 4 3 1 3 4 10 15 11 9 9 8 5 3 4 6 9 12 13 16 19 19 17 16 16 16 16 16 16 16 16 16 16 16 18 20 21 22 24 28 30 28 34 35 31
5 5 4 3 4 3 1 4 1 5 10 13 12 11 10 8 7 7 5 7 10 13 15 20 20 17 14 13 13 13 14 14 15 15 14 13 13 13 13 15 16 18 20 22 26 28 27 30 32
6 4 3 1 3 1 2 3 1 3 9 11 12 12 12 12 11 9 7 9 11 14 17 19 17 13 10 9 10 11 12 12 13 13 9 9 10 12 13 15 16 17 18 17 19 19 23 24 26
6 6 3 3 2 2 1 7 5 7 12 16 15 13 15 15 13 11 10 11 12 15 18 19 17 12 10 10 10 10 8 8 9 9 8 9 10 12 13 15 16 15 13 12 15 15 17 18 24
8 6 5 2 3 3 3 5 10 16 14 19 21 23 20 17 15 15 14 12 12 15 17 17 15 10 7 7 7 6 6 9 9 8 12 13 11 12 13 14 14 14 14 12 12 11 12 9 7
7 7 3 2 3 3 5 12 12 9 11 24 27 28 27 23 21 19 16 13 13 14 16 16 12 7 6 7 7 5 6 8 9 9 9 11 10 9 10 13 13 13 11 13 11 10 9 11 10
5 6 3 3 3 2 6 7 5 1 5 8 13 18 21 25 24 20 16 13 12 13 14 12 8 4 3 4 6 6 5 6 7 8 8 7 9 11 10 11 14 15 14 14 16 11 9 10 10
4 2 4 3 3 2 4 4 5 3 5 5 9 11 14 18 21 19 16 13 12 12 11 8 4 2 2 2 3 4 4 4 5 7 7 8 9 8 8 9 10 11 11 11 11 12 12 12 12
4 3 4 3 3 2 3 2 7 3 5 7 13 12 11 14 17 17 15 13 12 10 8 5 2 0 1 2 2 2 3 4 6 7 7 6 6 8 10 10 11 11 11 11 11 12 12 11 10
6 5 5 3 2 2 1 2 5 3 3 3 1 13 14 16 17 16 14 13 12 9 7 5 4 3 2 2 2 3 5 5 4 4 5 7 9 10 10 10 11 11 10 10 13 15 16 15 16
5 4 3 4 3 4 1 1 9 4 4 2 2 5 14 16 17 16 15 14 11 10 8 8 8 6 4 2 1 2 2 2 4 5 6 7 8 9 10 11 12 12 13 13 13 13 15 16 15
3 3 4 5 2 3 2 5 4 2 2 6 6 6 7 14 17 16 15 14 12 13 11 10 9 7 6 4 3 3 3 4 5 6 7 8 9 12 14 15 15 14 13 12 11 11 12 13 15
1 3 2 6 2 1 2 7 7 4 6 7 7 7 8 10 14 14 15 15 14 16 16 13 10 9 8 6 6 6 5 6 6 7 8 10 11 13 13 15 16 17 17 16 15 14 13 12 12
1 6 3 3 2 3 4 5 4 5 4 5 8 14 12 11 13 14 14 15 16 19 19 18 15 12 11 11 10 9 8 8 8 8 9 9 10 12 14 15 16 16 16 15 15 15 16 16 16
2 1 4 3 2 2 2 5 5 5 3 3 6 6 7 8 11 13 14 15 18 21 24 22 19 16 15 15 13 12 11 11 10 10 10 10 11 13 14 16 16 16 15 16 16 17 16 16 16
2 4 4 3 3 1 1 6 2 5 5 4 8 8 9 10 11 12 13 16 21 24 26 25 22 20 18 16 16 14 14 14 13 12 11 12 13 14 16 16 16 15 15 16 16 16 16 16 16

GFSSGP_850_spd_126.txt.gz
Wind_Speed
15 16 17 9 5 4 5 5 1 8 8 3 5 0 6 10 3 3 6 5 5 2 3 4 1 1 1 1 2 2 2 3 3 3 3 3 3 3 3 4 4 3 3 2 3 3 1 1 1
17 18 13 4 4 7 6 6 9 6 9 13 11 8 5 5 8 9 4 4 5 6 2 2 2 1 1 1 2 3 4 4 4 5 5 5 5 5 4 4 4 4 4 4 6 6 7 5 3
19 18 5 4 3 6 5 9 11 15 10 5 6 7 4 6 6 5 6 5 5 4 4 1 2 2 2 1 3 3 5 5 5 6 6 7 7 6 6 6 6 6 6 6 7 8 9 9 7
11 4 1 5 7 3 4 11 13 12 4 3 10 9 6 5 4 7 8 7 5 3 2 2 3 2 3 4 5 6 6 7 8 8 8 8 8 8 8 8 8 8 7 6 8 8 9 10 10
14 4 4 4 5 5 6 10 14 9 6 8 4 7 7 7 12 10 7 5 4 3 3 4 4 5 7 6 7 9 9 10 11 11 11 11 11 11 10 10 10 10 9 9 8 8 8 10 12
6 3 7 9 7 6 8 8 10 8 7 7 7 10 7 11 8 8 6 4 2 1 1 4 6 7 7 9 10 10 11 11 11 12 13 13 14 13 13 13 13 12 11 11 10 10 10 12 13
3 4 6 9 11 8 6 8 10 10 11 6 10 5 9 10 10 8 5 2 0 3 4 5 6 9 10 11 12 13 14 15 13 13 14 14 14 15 15 15 14 14 14 14 13 13 13 14 15
2 1 7 7 14 7 10 8 7 7 6 8 4 4 7 13 11 6 3 1 3 5 6 7 8 9 10 12 14 15 16 16 16 16 16 15 15 15 16 16 17 17 18 18 17 17 16 17 17
4 4 7 8 14 10 14 7 4 4 10 4 3 5 11 15 10 5 2 3 5 7 7 7 7 8 9 11 13 15 17 17 18 18 19 18 18 18 18 18 18 18 19 19 20 20 19 19 20
3 3 5 3 6 12 16 12 12 8 10 5 8 11 15 13 8 5 4 4 5 7 7 8 8 9 9 9 10 11 14 15 17 19 19 19 21 21 20 21 22 22 22 21 21 22 22 23 20
2 2 6 3 4 17 14 10 4 11 7 7 13 15 13 11 8 6 4 3 4 6 8 10 10 11 12 11 11 11 11 12 13 15 17 19 21 22 22 23 23 26 25 25 22 18 17 17 18
5 5 3 6 6 10 11 10 6 5 3 7 13 13 11 9 7 5 3 2 4 6 9 11 12 13 13 13 12 12 12 12 13 13 14 15 16 19 20 21 20 22 24 28 28 29 29 25 22
7 7 7 8 9 9 9 6 4 6 7 11 12 11 10 9 7 6 3 2 3 7 10 11 13 14 15 14 14 13 13 13 13 13 14 15 15 17 18 18 18 17 17 19 23 30 31 32 31
9 14 11 7 7 5 7 4 5 7 10 10 10 10 9 9 8 7 4 3 5 8 11 12 15 17 17 16 15 14 14 13 13 13 13 13 14 14 16 16 15 14 14 15 17 19 23 27 32
18 12 9 8 3 3 3 4 5 8 12 10 10 9 10 10 9 7 6 4 6 9 11 13 17 18 17 15 13 13 13 13 13 13 13 12 12 12 13 14 14 13 13 15 15 17 20 24 25
6 6 7 3 2 1 3 9 7 7 11 14 12 11 11 12 11 10 7 6 7 10 12 14 18 17 14 12 11 10 11 11 12 13 12 11 10 10 11 13 14 14 13 13 14 16 19 20 18
1 7 7 5 3 2 4 3 7 8 10 12 14 14 13 13 14 11 10 10 9 11 12 15 17 14 11 10 9 9 8 9 10 10 8 8 9 10 10 12 14 13 12 12 13 13 13 16 16
10 7 5 6 2 1 3 7 4 6 12 15 16 16 17 16 15 14 13 12 11 11 13 15 17 14 10 8 8 7 5 7 7 6 7 8 8 10 10 11 13 14 14 13 11 10 10 13 14
9 12 10 4 3 2 4 10 10 10 12 16 18 19 18 17 14 15 15 13 12 13 14 15 16 12 7 7 6 5 5 4 5 5 7 7 6 7 8 10 11 11 11 12 12 12 9 9 11
9 14 5 5 2 2 3 13 13 15 18 21 20 21 20 18 17 18 18 15 14 13 14 15 15 9 6 5 5 4 3 2 3 2 3 5 6 7 8 7 9 9 10 10 11 10 10 11 12
10 6 5 4 3 3 7 7 7 4 10 13 17 18 18 21 21 18 19 16 15 14 14 15 14 8 5 3 2 2 1 1 3 3 4 4 6 6 6 7 8 9 10 12 12 12 12 13 9
5 4 6 6 3 1 5 3 4 4 7 8 11 13 13 13 15 16 17 17 15 14 15 15 10 6 4 4 3 2 1 1 1 3 3 4 5 5 7 8 8 10 10 11 12 13 12 13 13
6 5 6 4 4 1 2 2 3 1 5 5 10 10 8 8 11 14 16 15 15 15 15 11 8 6 5 5 4 3 1 1 1 2 3 5 5 6 7 9 10 12 13 13 13 14 14 14 13
12 7 5 4 1 2 2 2 6 2 1 2 2 8 7 8 10 12 14 16 16 15 13 10 9 8 7 6 4 3 3 3 2 3 4 5 7 8 9 10 10 10 11 11 13 14 14 14 13
1 3 2 1 1 2 2 3 8 1 2 3 3 1 6 9 12 14 16 16 16 15 13 13 12 11 9 7 6 6 6 5 5 5 6 7 8 8 8 9 10 11 11 12 12 14 15 15 15
2 1 1 2 3 1 1 6 1 1 3 5 6 5 5 9 13 15 16 17 17 17 15 15 16 14 12 10 10 10 8 7 7 7 8 8 9 10 10 11 11 12 12 12 11 11 12 13 14
3 1 2 4 2 2 1 5 6 3 9 9 5 4 5 6 9 13 15 18 18 17 17 18 17 15 15 14 14 11 10 10 9 9 9 9 10 11 12 13 14 14 14 13 13 13 12 12 12
2 7 2 1 2 3 3 4 3 5 6 2 5 7 7 9 10 12 15 17 18 18 18 21 21 18 16 17 16 14 13 12 11 11 11 11 11 12 12 13 14 14 14 14 14 14 14 14 15
3 3 2 1 2 1 3 2 1 1 3 3 3 5 6 8 10 13 14 16 18 19 21 24 25 22 20 19 18 17 16 15 13 13 13 12 12 13 13 14 14 14 14 15 15 14 14 14 14
1 3 5 3 4 1 2 2 2 2 2 3 7 9 11 13 14 15 16 17 20 21 23 25 27 26 24 22 21 20 19 17 16 16 15 14 13 14 14 14 15 15 15 15 16 15 15 15 14

GFSSGP_850_spd_129.txt.gz
Wind_Speed
13 12 6 6 6 6 10 6 5 8 8 3 10 7 12 15 9 3 5 5 6 6 7 6 2 0 0 1 1 2 3 3 4 5 4 4 4 5 5 5 5 5 4 3 4 4 3 3 3
8 9 7 6 6 10 8 8 10 10 9 11 11 6 5 7 13 12 5 5 6 5 2 2 1 2 0 1 2 3 4 4 4 4 5 6 6 6 6 6 5 5 5 6 6 7 7 8 6
10 11 6 4 6 11 8 11 12 13 12 10 6 9 6 6 6 6 5 5 6 2 4 1 2 2 2 2 1 2 4 6 6 7 7 7 7 7 7 7 7 7 7 7 8 9 8 9 9
8 5 5 6 12 4 6 12 17 16 8 5 10 9 8 6 5 6 7 6 6 4 3 3 3 3 4 5 5 5 6 7 8 9 10 10 10 9 9 9 9 9 9 8 9 9 9 10 11
8 8 7 8 9 5 6 13 18 13 12 11 6 7 8 8 11 9 7 7 6 2 2 3 4 5 5 8 7 7 8 10 12 12 12 12 12 12 12 12 12 12 11 10 10 10 9 9 11
8 7 9 12 9 7 9 12 15 11 11 9 8 12 8 11 8 8 7 5 4 2 1 4 6 7 8 8 9 10 10 12 14 15 13 13 14 14 14 14 15 14 14 13 12 12 11 11 13
10 8 12 14 13 10 10 12 13 12 11 8 10 6 9 11 9 9 6 3 1 1 3 5 7 8 11 12 12 13 14 15 16 15 16 16 15 15 15 15 15 16 16 15 15 15 15 15 15
5 5 4 12 14 8 12 13 10 12 10 8 3 5 9 15 12 8 5 1 2 4 6 7 8 9 9 11 13 14 15 16 17 17 17 17 16 18 17 15 16 17 17 18 18 19 18 18 18
3 5 10 10 14 11 17 9 8 4 12 6 4 7 14 16 12 8 4 1 2 5 7 7 8 8 9 10 12 13 14 15 16 17 18 16 12 11 14 17 19 20 21 20 19 20 21 21 21
7 7 11 3 6 11 19 14 12 10 13 8 10 11 12 13 10 7 5 2 1 5 6 6 7 7 8 8 9 10 11 11 12 14 15 14 15 16 19 18 21 22 24 24 22 23 22 22 20
5 9 6 2 2 12 16 13 9 11 10 10 13 14 14 12 10 7 5 3 3 4 6 8 9 10 11 11 11 10 10 11 11 12 13 13 13 14 15 13 12 13 16 19 16 19 18 21 19
5 2 3 5 2 13 12 12 8 12 4 6 14 15 14 12 9 7 5 2 3 4 7 9 11 12 13 13 12 11 10 12 11 12 12 12 12 13 13 12 12 13 12 14 16 16 18 21 22
5 6 5 8 8 9 8 7 5 8 6 11 14 14 12 10 9 7 5 3 3 5 8 10 11 14 15 15 14 12 10 9 10 11 11 11 11 12 11 11 11 11 13 13 15 16 17 18 20
8 11 11 7 8 6 8 4 4 8 10 11 12 12 11 10 9 7 4 3 3 5 8 10 12 15 16 15 13 11 10 10 11 12 11 10 10 9 10 10 9 10 11 12 14 15 17 18 19
19 11 9 5 5 3 5 4 6 12 12 11 11 11 11 11 10 8 8 6 5 6 9 11 13 16 17 15 12 10 9 8 8 12 10 9 8 9 9 10 10 10 10 11 12 13 14 17 17
7 8 8 4 3 2 4 10 10 10 13 13 13 12 12 12 11 10 8 7 7 7 9 12 13 15 16 13 11 8 8 9 8 7 12 9 9 9 10 9 9 10 10 10 10 11 13 14 15
11 8 11 6 1 3 8 5 10 10 12 14 15 15 13 12 12 10 9 9 8 9 10 12 13 14 14 11 9 7 9 8 6 7 6 7 7 7 7 8 8 10 8 9 12 12 11 15 16
13 11 8 7 6 4 9 5 6 10 11 13 14 15 14 14 14 12 11 11 11 12 12 12 13 14 12 9 7 3 9 8 5 3 4 4 4 5 7 9 10 11 11 11 12 12 12 11 15
13 12 11 7 2 4 9 9 8 10 12 14 17 16 16 16 13 13 13 13 14 13 12 12 13 14 12 7 4 4 8 5 3 3 3 4 4 5 6 7 9 10 12 13 14 12 10 12 15
13 13 10 4 2 4 4 11 12 15 17 18 17 18 17 15 15 15 14 14 13 12 13 13 14 14 10 7 6 6 5 4 3 3 4 5 5 5 5 6 8 11 12 12 12 13 13 11 14
7 13 11 5 5 1 5 10 12 11 17 17 19 18 17 16 17 17 16 14 12 12 12 14 15 14 10 7 5 5 4 2 2 4 4 3 4 5 6 8 10 10 10 11 11 11 12 12 11
7 5 7 9 7 2 1 3 6 10 9 10 14 15 15 15 16 16 17 16 14 12 14 15 16 12 9 7 5 3 4 3 4 3 2 3 4 6 8 8 8 9 9 10 11 12 12 11 10
6 5 6 4 3 2 3 1 3 4 7 7 7 9 8 8 10 12 15 14 12 14 14 15 16 11 9 7 6 4 4 4 4 4 4 5 6 7 8 8 9 10 11 12 13 13 12 11 11
12 10 7 3 1 2 3 3 5 3 3 3 2 5 6 6 7 8 10 12 13 14 15 15 13 11 9 7 7 6 6 5 4 5 5 6 8 8 8 9 9 10 11 12 12 12 12 11 10
3 6 2 1 0 1 2 3 7 4 2 3 4 3 3 4 6 8 11 12 13 14 15 15 12 11 10 9 9 9 8 8 8 7 7 8 9 9 9 9 9 9 10 11 11 11 12 12 12
3 1 0 3 5 3 2 5 1 4 2 2 2 1 1 4 8 10 11 12 14 15 16 14 13 13 13 12 12 12 12 11 11 10 9 9 10 10 9 9 10 10 11 11 11 11 12 12 12
4 3 1 1 2 1 3 4 2 0 3 5 2 1 3 4 6 9 11 13 14 15 15 16 16 17 17 16 16 16 15 14 13 11 10 11 11 12 11 11 12 12 12 11 11 12 12 12 13
3 4 2 1 2 3 5 3 1 3 4 3 2 3 3 4 6 9 10 12 14 15 16 17 18 19 18 19 20 19 18 17 15 14 13 13 13 12 13 13 13 13 13 13 13 14 13 13 13
3 3 1 2 2 2 2 5 4 4 4 5 5 5 6 6 7 9 12 14 15 16 17 18 20 21 23 22 22 22 21 20 18 18 17 16 15 15 15 14 14 14 14 14 15 15 15 15 14
6 5 7 3 4 2 3 2 3 4 5 5 7 10 11 11 13 15 16 16 16 18 19 21 21 23 24 24 24 24 23 23 23 22 20 18 18 17 16 16 15 15 15 15 16 16 16 15 14

GFSSGP_850_spd_132.txt.gz
Wind_Speed
12 14 11 3 0 3 5 0 7 6 5 11 18 17 19 19 6 7 9 10 11 2 3 5 3 2 2 1 1 1 1 2 2 3 4 4 5 6 6 6 6 5 4 3 3 4 4 5 5
16 9 10 3 2 4 5 6 7 6 12 15 12 13 16 7 15 17 9 10 8 2 3 3 2 3 3 2 1 1 2 3 3 4 4 4 4 6 6 6 6 6 6 6 6 7 6 7 7
15 10 4 3 4 5 1 8 12 16 16 8 6 17 9 6 8 8 9 12 5 2 2 0 1 2 2 3 3 2 3 3 5 6 7 7 7 7 7 7 7 8 8 8 7 8 8 8 9
8 6 4 2 10 3 4 10 20 12 8 7 17 9 10 6 7 11 13 9 7 2 3 2 1 1 1 3 4 4 5 6 7 10 10 10 9 9 10 10 10 10 10 10 9 9 8 9 9
10 5 3 4 8 3 4 19 20 10 9 13 11 6 8 11 14 13 14 13 7 3 1 1 2 3 3 5 6 7 7 7 7 10 12 11 11 12 12 12 12 12 12 12 11 11 10 10 10
6 5 3 6 7 5 6 18 18 15 16 9 16 12 7 11 13 13 9 8 5 3 1 2 3 5 6 7 8 9 10 10 12 13 14 13 12 12 12 13 13 13 13 14 13 13 13 12 12
4 3 5 9 8 6 5 11 11 14 16 7 17 6 13 13 12 11 8 6 4 2 1 3 6 7 8 9 10 11 12 13 14 15 14 14 13 14 14 14 14 15 14 15 16 16 16 15 16
4 2 4 6 10 6 9 7 10 14 6 11 4 7 8 19 15 11 7 4 1 1 3 4 6 7 8 9 10 10 11 13 14 15 15 14 13 13 14 14 15 15 15 16 17 18 18 18 19
2 1 4 6 11 8 17 3 8 9 15 9 9 11 18 19 15 11 7 3 1 3 4 6 6 7 7 8 9 10 10 10 12 13 14 13 12 12 13 15 17 17 18 19 20 20 20 20 21
3 2 2 9 7 11 17 12 7 8 14 10 15 16 18 16 14 9 6 3 3 3 5 5 6 7 8 9 9 10 9 10 10 11 11 10 10 12 14 15 13 14 13 15 17 17 19 20 19
5 2 3 10 8 16 16 17 10 14 5 14 16 17 15 15 11 9 10 7 4 3 5 6 8 8 9 9 9 9 8 10 10 11 11 10 10 11 11 10 9 11 13 12 12 15 15 17 17
1 6 10 4 8 16 8 13 5 7 5 11 15 15 16 15 12 9 6 4 2 3 5 7 8 10 11 12 11 10 8 9 10 10 12 10 8 9 9 8 8 9 9 12 14 15 16 15 15
1 4 6 5 11 12 13 7 3 9 11 14 16 16 14 12 11 10 9 5 2 4 6 8 10 11 13 13 12 10 8 8 11 11 11 11 10 11 11 11 10 9 9 9 12 14 15 18 19
10 10 9 7 7 4 6 3 3 7 13 16 16 14 13 12 12 9 6 4 3 4 6 8 10 12 14 14 13 11 9 8 10 10 8 8 8 8 9 8 7 8 8 9 10 12 13 14 18
21 8 6 5 5 2 4 2 4 18 14 13 13 13 13 11 10 6 7 10 6 5 6 9 11 13 14 15 13 10 10 9 6 10 9 6 6 6 5 4 7 8 6 9 10 10 11 12 12
6 6 5 4 3 1 1 3 8 15 16 14 14 13 13 12 12 10 13 10 7 6 8 10 11 13 14 15 12 8 11 8 2 4 7 8 7 6 7 5 7 6 5 8 9 10 6 10 11
7 4 6 4 1 3 4 4 9 12 13 13 15 14 14 12 13 13 13 10 8 8 9 11 11 12 13 13 10 6 10 11 2 4 5 3 4 4 5 6 6 6 7 8 10 8 8 10 13
5 6 6 6 6 1 4 2 7 11 12 13 16 16 16 15 17 14 13 13 11 11 11 11 12 13 13 12 6 4 12 10 5 4 3 4 4 5 6 7 8 8 8 10 11 12 10 13 15
9 8 9 6 2 3 4 5 7 14 14 13 14 18 20 19 15 16 15 16 14 12 12 12 12 13 14 11 7 8 12 8 4 4 4 5 5 6 5 5 6 8 10 11 12 12 13 13 13
9 8 6 6 4 2 6 7 8 10 15 20 19 19 19 18 17 17 18 18 16 13 14 13 12 13 13 10 8 8 8 5 3 3 4 5 4 3 4 4 7 9 10 10 10 12 12 12 15
5 9 6 6 5 1 1 6 7 9 20 24 23 18 14 14 17 18 20 18 16 16 15 13 12 13 13 9 7 6 1 2 2 6 5 4 4 4 6 7 7 8 9 9 10 10 11 11 10
4 3 9 10 4 3 3 3 2 6 7 5 13 13 11 11 9 13 19 19 18 16 16 13 13 13 12 7 6 4 5 6 7 5 3 4 4 5 6 7 8 9 10 9 9 9 10 10 9
4 1 6 6 3 3 3 4 5 6 6 6 11 11 11 10 12 16 16 18 18 15 16 13 13 14 11 8 7 7 7 7 6 5 5 5 6 6 7 8 8 8 9 9 10 11 11 11 10
8 6 5 5 2 3 2 3 4 3 4 5 5 6 8 7 9 10 12 17 15 16 15 13 14 13 10 9 9 9 9 8 7 7 8 7 8 8 8 9 9 10 10 10 10 10 9 9 9
3 2 3 4 3 3 3 1 6 6 6 8 8 8 4 5 6 6 10 10 11 13 14 14 14 13 11 11 11 11 11 10 11 10 9 9 9 10 10 10 10 10 10 10 10 10 10 11 11
3 2 4 5 4 3 4 4 3 6 7 4 7 4 3 3 5 7 9 11 12 13 15 15 15 13 13 13 14 14 14 13 13 12 11 11 11 12 11 11 11 11 10 10 10 11 12 13 13
3 1 0 3 1 4 4 5 5 6 4 6 6 3 1 2 4 6 8 11 12 13 14 15 15 15 15 16 17 18 17 16 16 14 14 14 13 13 12 12 12 12 11 11 11 12 13 13 14
4 2 4 3 3 2 2 2 3 3 4 5 5 7 5 3 5 7 9 11 13 14 14 15 17 17 17 19 20 20 20 20 18 18 18 17 16 15 14 14 14 14 14 13 13 13 13 14 14
2 2 1 1 3 2 1 3 3 5 5 7 7 3 4 7 10 12 15 18 19 19 19 18 19 20 20 21 22 23 23 23 22 21 21 20 18 18 17 16 16 15 16 16 16 15 15 15 15
3 3 3 3 2 1 2 4 5 7 7 6 4 6 7 7 9 12 15 19 20 21 22 22 21 22 23 22 24 27 26 25 26 25 24 22 22 21 20 19 18 18 18 18 17 17 16 17 17

GFSSGP_850_spd_135.txt.gz
Wind_Speed
10 14 13 8 4 4 3 5 3 4 5 11 19 21 13 15 5 6 15 6 8 6 4 4 4 3 3 3 2 1 1 2 2 3 4 3 4 5 6 6 6 6 5 3 3 4 5 5 5
19 17 7 4 5 3 5 4 7 4 15 17 18 15 14 6 11 19 16 8 10 7 6 4 4 3 3 2 1 1 1 2 3 4 5 6 6 7 6 6 6 6 6 6 6 6 6 7 7
20 14 4 4 4 5 4 3 9 12 11 7 8 18 7 7 15 12 12 9 8 7 6 4 2 2 2 2 2 2 3 3 4 5 8 8 9 9 8 8 9 9 9 8 7 7 7 8 8
10 8 2 3 6 6 4 7 15 8 12 7 19 10 9 5 10 15 13 10 8 7 6 4 2 1 1 2 3 3 4 5 4 5 9 10 8 9 9 9 9 10 10 10 9 9 9 8 9
11 3 2 3 3 1 4 14 17 7 7 12 7 5 7 15 17 20 18 13 6 7 5 4 2 2 2 3 4 5 6 6 6 6 7 11 10 9 10 10 11 11 12 12 12 11 11 10 10
4 2 3 4 4 4 3 21 19 12 15 11 12 9 6 14 16 20 14 8 7 5 3 2 2 3 4 5 6 8 8 9 9 10 11 12 10 10 10 10 12 12 13 13 12 12 12 13 13
2 4 5 6 7 4 5 19 12 11 11 6 17 5 12 16 14 14 13 9 6 4 2 1 2 4 5 6 6 8 9 11 12 12 13 12 11 12 11 11 12 12 12 13 12 13 14 15 16
4 3 3 3 7 5 7 6 22 22 5 14 4 7 8 21 17 13 11 8 6 3 1 2 4 5 6 7 6 7 8 9 11 11 12 11 12 13 13 14 11 10 12 13 15 15 16 17 16
1 3 2 2 8 6 12 6 9 10 14 10 5 13 6 24 19 14 10 7 5 2 1 3 4 5 6 6 6 6 7 6 8 9 9 9 10 12 13 14 14 15 13 12 13 15 16 17 18
3 3 1 2 2 7 11 13 11 8 15 10 19 16 20 22 19 14 10 7 3 1 2 3 4 5 6 6 7 7 8 8 9 10 9 8 8 10 10 11 12 13 11 10 9 10 10 11 13
4 1 6 7 9 22 10 10 6 21 2 12 24 24 21 21 16 13 11 7 4 2 2 4 5 5 6 7 7 8 9 9 10 11 11 10 9 10 9 9 9 11 12 13 13 12 10 11 12
5 6 5 9 6 16 8 14 8 3 2 13 19 20 21 19 15 13 10 7 4 1 1 3 5 6 8 9 9 9 9 11 11 11 11 10 10 9 8 8 9 10 11 12 13 14 17 18 19
4 1 7 8 17 15 19 12 8 8 11 19 19 19 19 17 14 11 8 6 4 2 1 4 6 7 9 10 10 9 8 10 11 9 10 9 9 9 8 8 9 9 11 12 14 14 15 16 17
8 11 6 8 11 12 9 5 6 8 21 21 19 19 18 17 16 12 9 7 5 3 4 6 7 8 10 11 12 11 10 8 9 6 6 6 6 6 6 6 7 6 7 9 11 12 13 14 16
17 6 6 8 6 4 7 4 2 17 20 21 18 17 17 15 14 10 10 8 5 5 5 7 8 9 10 12 12 12 11 7 6 7 6 5 4 5 5 5 7 6 7 8 7 9 10 10 9
5 5 5 3 3 2 3 3 4 18 19 17 17 16 17 13 13 11 11 10 10 8 7 7 8 10 11 12 12 12 12 7 7 8 7 8 6 5 4 4 5 5 8 10 9 9 6 8 10
1 4 5 2 1 2 1 1 6 15 15 15 16 17 16 16 16 15 15 14 12 10 9 9 9 10 10 12 10 10 10 10 8 8 5 6 5 4 4 5 5 6 7 9 10 10 9 8 8
4 6 5 6 5 3 3 1 6 16 16 15 17 18 19 19 20 18 17 15 13 12 10 10 10 10 10 11 10 10 10 11 13 7 3 3 4 5 7 8 8 7 8 9 8 9 9 10 10
7 6 8 3 2 3 6 4 8 16 15 15 17 22 24 20 14 15 15 14 14 14 12 12 10 10 11 12 9 11 11 12 9 5 4 4 6 6 6 5 6 8 8 8 8 9 9 9 10
3 10 4 3 3 2 6 8 6 13 14 23 23 21 25 23 19 19 18 15 15 14 15 13 11 10 12 12 10 9 8 8 4 3 4 5 4 4 4 5 7 7 7 8 9 9 10 13 13
3 8 6 6 4 1 2 6 5 7 21 22 20 19 17 16 24 23 21 18 15 15 15 13 11 11 12 11 8 8 5 4 5 4 5 4 3 4 6 6 7 9 9 9 9 9 9 9 10
5 2 7 11 4 4 3 3 5 5 5 8 20 18 12 7 17 22 20 18 16 15 14 12 11 12 12 9 7 7 7 8 6 6 4 3 4 4 6 7 9 9 9 9 9 9 9 9 8
4 5 7 4 3 5 2 4 7 2 2 2 5 12 12 9 8 11 13 15 15 14 15 12 12 13 13 9 8 9 9 8 8 7 6 5 6 7 8 9 9 9 9 9 9 9 9 9 9
6 7 8 5 4 3 2 5 5 2 4 2 4 5 7 7 8 9 12 12 14 15 14 13 14 13 12 10 9 10 10 10 9 8 8 8 8 9 9 9 10 10 10 10 10 10 9 9 9
7 6 3 4 3 5 4 3 6 1 2 6 9 9 5 3 4 5 7 9 12 12 12 13 13 13 12 11 11 12 12 12 11 10 10 10 11 11 10 10 11 11 11 12 11 11 11 10 10
3 5 5 6 4 4 4 5 4 4 7 10 10 7 3 1 2 4 5 7 9 10 12 12 13 13 13 13 13 14 14 14 14 13 13 13 13 13 12 12 12 12 13 13 13 13 12 12 12
2 1 3 6 4 4 3 3 4 2 4 8 7 5 2 0 2 3 5 8 10 11 13 14 15 15 15 16 15 16 16 16 16 16 16 16 15 15 15 14 14 13 14 14 14 14 14 13 14
2 3 3 3 3 2 4 3 4 1 4 5 5 6 3 2 3 6 9 11 13 15 16 17 18 18 17 18 19 19 19 18 18 19 19 19 18 18 18 17 16 15 15 15 15 15 15 15 15
2 1 2 4 4 4 3 5 4 6 6 7 6 3 3 4 7 8 9 12 14 15 17 16 17 17 18 19 19 20 21 22 21 22 22 22 21 21 21 19 18 17 17 16 17 16 17 18 17
1 2 4 4 3 1 3 4 2 8 11 8 6 5 5 6 6 7 11 14 12 12 13 16 16 18 18 18 18 19 20 22 25 26 26 25 25 25 25 23 22 21 20 19 19 19 19 19 20